TimeEST,TemperatureF,Dew PointF,Humidity,Sea Level PressureIn,VisibilityMPH,Wind Direction,Wind SpeedMPH,Gust SpeedMPH,PrecipitationIn,Events,Conditions,WindDirDegrees,DateUTC
12:53 AM,78.1,70.0,76,30.15,10.0,SE,12.7,-,N/A,,Scattered Clouds,140,2013-12-23 05:53:00
1:53 AM,78.1,70.0,76,30.15,10.0,SE,13.8,-,N/A,,Scattered Clouds,140,2013-12-23 06:53:00
2:53 AM,78.1,70.0,76,30.13,10.0,SSE,9.2,-,0.00,,Scattered Clouds,150,2013-12-23 07:53:00
3:53 AM,78.1,71.1,79,30.13,10.0,SE,13.8,20.7,0.00,Rain,Light Rain,140,2013-12-23 08:53:00
4:53 AM,77.0,70.0,79,30.12,10.0,SSE,11.5,-,0.00,,Scattered Clouds,150,2013-12-23 09:53:00
5:53 AM,77.0,70.0,79,30.14,10.0,SSE,10.4,-,N/A,,Scattered Clouds,150,2013-12-23 10:53:00
6:53 AM,77.0,70.0,79,30.14,10.0,SSE,11.5,-,N/A,,Scattered Clouds,150,2013-12-23 11:53:00
7:53 AM,78.1,71.1,79,30.16,10.0,SSE,9.2,-,N/A,,Scattered Clouds,150,2013-12-23 12:53:00
8:53 AM,80.1,71.1,74,30.17,10.0,SE,16.1,-,N/A,,Scattered Clouds,140,2013-12-23 13:53:00
9:53 AM,82.0,70.0,67,30.18,10.0,SSE,19.6,23.0,N/A,,Scattered Clouds,150,2013-12-23 14:53:00
10:06 AM,80.6,69.8,70,30.18,10.0,SSE,16.1,-,N/A,,Mostly Cloudy,160,2013-12-23 15:06:00
10:53 AM,82.0,70.0,67,30.18,10.0,SSE,13.8,23.0,N/A,,Mostly Cloudy,160,2013-12-23 15:53:00
11:53 AM,82.0,71.1,69,30.17,10.0,SSE,15.0,23.0,N/A,,Mostly Cloudy,150,2013-12-23 16:53:00
12:53 PM,82.9,71.1,67,30.15,10.0,SSE,15.0,21.9,0.00,,Mostly Cloudy,160,2013-12-23 17:53:00
1:53 PM,82.9,70.0,65,30.13,10.0,SSE,17.3,25.3,N/A,,Mostly Cloudy,150,2013-12-23 18:53:00
2:43 PM,82.4,69.8,66,30.12,10.0,SSE,15.0,23.0,N/A,,Scattered Clouds,150,2013-12-23 19:43:00
2:53 PM,82.0,70.0,67,30.12,10.0,SSE,16.1,-,N/A,,Scattered Clouds,150,2013-12-23 19:53:00
3:53 PM,82.0,69.1,65,30.12,10.0,SSE,16.1,-,N/A,,Partly Cloudy,150,2013-12-23 20:53:00
4:53 PM,80.1,69.1,69,30.12,10.0,SSE,15.0,-,N/A,,Partly Cloudy,160,2013-12-23 21:53:00
5:53 PM,78.1,69.1,74,30.13,10.0,SSE,9.2,-,N/A,,Scattered Clouds,160,2013-12-23 22:53:00
6:53 PM,78.1,70.0,76,30.15,10.0,South,5.8,-,N/A,,Scattered Clouds,180,2013-12-23 23:53:00
7:53 PM,75.9,69.1,79,30.16,10.0,SSW,3.5,-,N/A,,Scattered Clouds,200,2013-12-24 00:53:00
8:53 PM,75.9,69.1,79,30.17,10.0,Calm,Calm,-,N/A,,Partly Cloudy,0,2013-12-24 01:53:00
9:53 PM,75.0,69.1,82,30.17,10.0,SSE,3.5,-,N/A,,Partly Cloudy,150,2013-12-24 02:53:00
10:53 PM,75.0,69.1,82,30.16,10.0,South,3.5,-,N/A,,Scattered Clouds,190,2013-12-24 03:53:00
11:53 PM,72.0,68.0,87,30.15,10.0,WSW,3.5,-,N/A,,Scattered Clouds,250,2013-12-24 04:53:00